DW9151 Weather Reports


Display with metric or nautical units.
time (UTC)temp
F
wind
direction
speed
MPH
gust
MPH
rain 1hr
in
rain 24hr
in
rain mn
in
humidity
%
barometer
mb
20260507163629 41 20 3.0 6.0 0.00 0.01 0.01 88 1016.1
20260507163129 41 16 5.0 8.0 0.00 0.01 0.01 88 1016.1
20260507161629 41 17 5.0 10.0 0.00 0.01 0.01 88 1016.0
20260507161129 41 18 5.0 9.0 0.00 0.01 0.01 88 1015.9
20260507160629 41 16 6.0 12.0 0.00 0.01 0.01 87 1015.8
20260507155129 43 18 7.0 10.0 0.00 0.01 0.01 87 1015.7
20260507154629 45 17 2.0 6.0 0.00 0.02 0.01 88 1015.7
20260507153629 45 17 2.0 3.0 0.00 0.02 0.01 88 1015.7
20260507153128 45 19 1.0 3.0 0.00 0.02 0.01 87 1015.7
20260507152629 45 18 2.0 6.0 0.00 0.02 0.01 82 1015.6
20260507152129 45 14 2.0 7.0 0.00 0.02 0.01 86 1015.6
20260507151129 45 18 1.0 5.0 0.00 0.02 0.01 84 1015.6
20260507150629 45 17 3.0 6.0 0.00 0.02 0.01 80 1015.5
20260507150129 45 22 2.0 5.0 0.00 0.02 0.01 76 1015.4
20260507145629 45 16 1.0 3.0 0.00 0.02 0.01 79 1015.3
20260507145129 45 10 2.0 6.0 0.00 0.02 0.01 79 1015.3
20260507144628 45 15 2.0 5.0 0.00 0.02 0.01 84 1015.4
20260507144129 45 9 3.0 5.0 0.00 0.02 0.01 83 1015.3
20260507143628 45 19 2.0 5.0 0.00 0.02 0.01 87 1015.4
20260507143131 44 15 1.0 5.0 0.00 0.02 0.01 81 1015.4
20260507142629 44 21 3.0 10.0 0.00 0.02 0.01 81 1015.3
20260507142128 45 22 2.0 5.0 0.00 0.02 0.01 86 1015.3
20260507141629 44 17 1.0 5.0 0.00 0.02 0.01 84 1015.4
20260507141129 44 16 2.0 5.0 0.00 0.02 0.01 83 1015.3
20260507140629 43 17 5.0 8.0 0.00 0.02 0.01 78 1015.3
20260507140129 43 15 4.0 7.0 0.00 0.02 0.01 84 1015.3
20260507135629 41 16 2.0 7.0 0.00 0.02 0.01 88 1015.3
20260507135129 40 11 3.0 6.0 0.00 0.02 0.01 88 1015.4
20260507134129 39 1 2.0 9.0 0.00 0.02 0.01 87 1015.5
20260507133629 40 9 4.0 10.0 0.00 0.02 0.01 87 1015.7
20260507133129 40 0 5.0 9.0 0.00 0.02 0.01 87 1015.8
20260507132629 41 18 4.0 8.0 0.00 0.02 0.01 88 1015.7
20260507132129 41 5 3.0 9.0 0.00 0.02 0.01 88 1015.7
20260507131629 42 0 3.0 15.0 0.00 0.03 0.01 88 1015.8
20260507131129 42 5 5.0 8.0 0.00 0.03 0.01 87 1015.9
20260507130129 42 11 5.0 12.0 0.00 0.04 0.01 87 1016.0
20260507125628 42 11 4.0 8.0 0.00 0.06 0.01 87 1015.8
20260507125130 42 3 3.0 6.0 0.00 0.08 0.01 88 1015.6
20260507124629 41 18 2.0 6.0 0.00 0.16 0.01 87 1015.7
20260507124129 41 15 3.0 7.0 0.00 0.18 0.01 87 1015.7
20260507123629 40 17 2.0 8.0 0.00 0.20 0.01 86 1015.6
20260507123128 40 10 4.0 8.0 0.00 0.21 0.01 85 1015.5
20260507122628 40 18 3.0 8.0 0.00 0.21 0.01 85 1015.4
20260507122129 40 17 4.0 7.0 0.00 0.23 0.01 84 1015.4
20260507121629 40 17 3.0 6.0 0.00 0.24 0.01 84 1015.3
20260507120629 40 18 2.0 5.0 0.00 0.26 0.01 85 1015.3
20260507115628 40 17 3.0 8.0 0.00 0.28 0.01 85 1015.4
20260507115129 40 13 4.0 8.0 0.00 0.28 0.01 85 1015.4
20260507114629 41 17 5.0 8.0 0.00 0.31 0.01 85 1015.4
20260507114129 41 18 3.0 6.0 0.00 0.32 0.01 85 1015.4
20260507113629 41 12 3.0 7.0 0.00 0.33 0.01 84 1015.3
20260507113129 40 14 4.0 7.0 0.00 0.34 0.01 84 1015.4
20260507112629 40 19 5.0 13.0 0.00 0.34 0.01 84 1015.4
20260507112129 41 16 6.0 9.0 0.00 0.35 0.01 84 1015.3
20260507111129 41 15 6.0 9.0 0.00 0.36 0.01 84 1015.1
20260507110129 41 19 3.0 8.0 0.00 0.36 0.01 86 1015.2
20260507105629 42 12 4.0 6.0 0.00 0.36 0.01 86 1015.2
20260507105129 43 16 2.0 6.0 0.00 0.36 0.01 86 1015.3
20260507104628 43 15 3.0 7.0 0.00 0.36 0.01 87 1015.1
20260507104128 43 19 4.0 9.0 0.00 0.36 0.01 87 1015.2
20260507103628 44 18 8.0 12.0 0.00 0.36 0.01 87 1015.2
20260507103129 43 18 5.0 8.0 0.00 0.37 0.01 87 1015.3
20260507102629 42 18 5.0 12.0 0.00 0.37 0.01 88 1015.4
20260507102129 43 14 6.0 10.0 0.00 0.37 0.01 88 1015.4
20260507101629 45 16 5.0 10.0 0.00 0.37 0.01 87 1015.4
20260507100629 43 17 6.0 10.0 0.00 0.37 0.01 88 1015.4
20260507100129 44 16 7.0 10.0 0.00 0.38 0.01 88 1015.4
20260507095628 43 16 4.0 10.0 0.00 0.39 0.01 86 1015.4
20260507095129 42 17 6.0 10.0 0.00 0.39 0.01 86 1015.4
20260507094628 42 17 6.0 9.0 0.00 0.39 0.01 87 1015.4
20260507094128 43 16 4.0 10.0 0.00 0.39 0.01 84 1015.4
20260507093629 41 15 7.0 10.0 0.00 0.39 0.01 85 1015.2
20260507093129 41 16 4.0 9.0 0.00 0.39 0.01 84 1015.2
20260507092628 41 17 5.0 7.0 0.00 0.39 0.01 85 1015.2
20260507092128 41 18 2.0 6.0 0.00 0.39 0.01 85 1015.2
20260507091629 41 17 2.0 8.0 0.00 0.39 0.01 87 1015.1
20260507091128 42 14 3.0 6.0 0.00 0.39 0.01 87 1015.1
20260507090629 42 14 0.0 3.0 0.00 0.39 0.01 87 1015.1
20260507090129 42 15 2.0 3.0 0.00 0.39 0.01 88 1015.0
20260507085629 43 15 1.0 2.0 0.00 0.39 0.01 85 1015.0
20260507085128 42 15 1.0 5.0 0.00 0.39 0.01 85 1015.0
20260507084129 42 14 3.0 5.0 0.00 0.41 0.01 88 1014.8
20260507083628 43 14 0.0 2.0 0.00 0.41 0.01 89 1014.9
20260507082628 43 14 1.0 3.0 0.00 0.43 0.01 88 1014.8
20260507082129 43 15 3.0 6.0 0.00 0.43 0.01 88 1014.8
20260507081628 42 13 3.0 7.0 0.00 0.43 0.01 88 1014.7
20260507080629 41 16 2.0 5.0 0.00 0.45 0.01 84 1014.7
20260507080130 40 16 2.0 5.0 0.00 0.45 0.01 84 1014.7
20260507075128 39 15 6.0 7.0 0.00 0.50 0.01 89 1014.6
20260507074629 39 15 4.0 6.0 0.00 0.51 0.01 89 1014.5
20260507074128 40 15 4.0 5.0 0.00 0.53 0.01 89 1014.5
20260507073628 41 15 2.0 3.0 0.00 0.54 0.01 89 1014.5
20260507073128 40 15 5.0 7.0 0.00 0.55 0.01 90 1014.4
20260507072629 41 14 1.0 5.0 0.00 0.56 0.01 89 1014.4
20260507071628 41 15 1.0 3.0 0.00 0.57 0.01 89 1014.3
20260507071128 42 15 1.0 3.0 0.00 0.57 0.01 88 1014.3
20260507070628 43 15 2.0 5.0 0.00 0.59 0.01 84 1014.2
20260507070129 44 14 2.0 3.0 0.00 0.62 0.01 81 1014.2
20260507065629 45 14 1.0 5.0 0.00 0.64 0.01 78 1014.2
20260507065128 46 18 2.0 3.0 0.00 0.66 0.01 74 1014.0
20260507064628 46 17 0.0 2.0 0.00 0.71 0.01 80 1014.2
20260507063629 45 17 1.0 3.0 0.00 0.77 0.01 80 1014.3
20260507062628 43 20 2.0 3.0 0.00 0.83 0.01 70 1014.3
20260507062129 43 18 4.0 7.0 0.00 0.86 0.01 63 1014.3
20260507061629 43 21 1.0 3.0 0.00 0.88 0.01 69 1014.3
20260507061128 43 20 2.0 3.0 0.00 0.89 0.01 64 1014.4
20260507060628 43 19 2.0 5.0 0.00 0.91 0.01 61 1014.5
20260507054628 42 18 2.0 3.0 0.00 0.95 0.01 66 1014.3
20260507053628 41 17 3.0 8.0 0.00 0.98 0.01 69 1014.2
20260507053128 41 15 3.0 6.0 0.00 0.98 0.01 68 1014.1
20260507052629 41 12 3.0 6.0 0.00 0.98 0.01 69 1014.0
20260507052128 41 21 2.0 3.0 0.00 0.99 0.01 69 1014.0
20260507050628 40 13 2.0 3.0 0.00 1.01 0.01 74 1013.8
20260507050128 39 12 2.0 5.0 0.00 1.01 0.01 78 1013.8
20260507045628 39 9 3.0 6.0 0.00 1.01 0.01 80 1013.7
20260507045128 39 10 4.0 9.0 0.00 1.01 0.01 84 1013.7
20260507044628 38 19 3.0 9.0 0.00 1.01 0.01 85 1013.6
20260507044128 38 13 5.0 10.0 0.00 1.01 0.01 90 1013.5
20260507043628 38 15 3.0 10.0 0.00 1.01 0.01 90 1013.4
20260507042128 36 17 3.0 7.0 0.00 1.01 0.01 90 1013.3
20260507041628 36 21 3.0 6.0 0.00 1.01 0.01 90 1013.3
20260507041128 36 22 3.0 7.0 0.00 1.01 0.01 90 1013.3
20260507040628 36 14 3.0 8.0 0.00 1.01 0.01 90 1013.3
20260507040128 36 17 3.0 5.0 0.00 1.01 0.01 90 1013.3
20260507035627 36 24 3.0 6.0 0.00 1.01 0.01 90 1013.3
20260507034628 36 19 4.0 8.0 0.00 1.01 0.01 90 1013.3
20260507034128 37 16 3.0 6.0 0.00 1.01 0.01 90 1013.3
20260507033628 37 15 3.0 6.0 0.00 1.01 0.01 89 1013.3
20260507033128 37 14 3.0 7.0 0.00 1.01 0.01 88 1013.3
20260507032627 37 13 3.0 9.0 0.00 1.01 0.01 86 1013.3
20260507032128 37 20 4.0 10.0 0.00 1.01 0.01 84 1013.3
20260507031627 37 14 3.0 13.0 0.00 1.01 0.01 81 1013.3
20260507031128 37 24 7.0 14.0 0.00 1.01 0.01 75 1013.2
20260507030628 38 24 9.0 14.0 0.00 1.01 0.01 73 1013.1
20260507025627 37 20 10.0 17.0 0.00 1.01 0.01 78 1013.1
20260507025128 37 21 7.0 15.0 0.00 1.01 0.01 82 1013.2
20260507024628 37 16 10.0 18.0 0.00 1.01 0.01 83 1013.2
20260507024128 36 18 6.0 12.0 0.00 1.01 0.01 86 1013.3
20260507023628 36 17 6.0 13.0 0.00 1.01 0.01 86 1013.2
20260507023128 36 10 6.0 12.0 0.00 1.01 0.01 87 1013.4
20260507022628 36 18 5.0 8.0 0.00 1.01 0.01 90 1013.4
20260507021628 36 14 5.0 7.0 0.01 1.01 0.01 84 1013.6
20260507021128 36 15 5.0 14.0 0.01 1.01 0.01 83 1013.6
20260507020128 35 16 5.0 12.0 0.01 1.01 0.01 83 1013.6
20260507015628 35 15 5.0 13.0 0.01 1.01 0.01 84 1013.5
20260507015128 35 14 5.0 9.0 0.01 1.01 0.01 84 1013.5
20260507014628 35 15 4.0 7.0 0.01 1.01 0.01 84 1013.5
20260507014128 35 16 5.0 7.0 0.01 1.01 0.01 84 1013.6
20260507013627 35 14 4.0 7.0 0.01 1.01 0.01 84 1013.5
20260507013127 35 11 5.0 8.0 0.01 1.01 0.01 84 1013.5
20260507012128 35 19 5.0 7.0 0.01 1.01 0.01 84 1013.5
20260507011628 34 16 3.0 9.0 0.00 1.00 0.00 85 1013.5
20260507011128 35 17 4.0 9.0 0.00 1.00 0.00 85 1013.5
20260507010628 35 13 3.0 8.0 0.00 1.00 0.00 84 1013.5
20260507010128 35 12 3.0 7.0 0.00 1.00 0.00 84 1013.5
20260507005628 36 12 3.0 7.0 0.00 1.00 0.00 85 1013.4
20260507005128 36 10 3.0 7.0 0.00 1.00 0.00 85 1013.5
20260507004628 37 11 2.0 5.0 0.00 1.00 0.00 84 1013.5
20260507004128 37 10 3.0 6.0 0.00 1.00 0.00 84 1013.4
20260507003128 37 15 3.0 7.0 0.00 1.00 0.00 85 1013.3
20260507002128 37 18 2.0 5.0 0.00 1.00 0.00 84 1013.3
20260507001627 37 11 2.0 7.0 0.00 1.00 0.00 84 1013.3
20260507000628 38 9 2.0 5.0 0.00 1.00 0.00 84 1013.3
20260507000128 38 16 3.0 6.0 0.00 1.00 0.00 84 1013.4
20260506235128 38 15 2.0 9.0 0.00 1.00 0.00 84 1013.4
20260506234628 38 12 3.0 5.0 0.00 1.00 0.00 84 1013.3
20260506233627 38 14 2.0 6.0 0.00 1.00 0.00 84 1013.3
20260506233127 39 13 3.0 8.0 0.00 1.00 0.00 84 1013.4
20260506232127 39 12 3.0 7.0 0.00 1.00 0.00 84 1013.4
20260506231628 39 13 3.0 7.0 0.00 1.00 0.00 84 1013.4
20260506231128 39 16 3.0 8.0 0.00 1.00 0.00 84 1013.3
20260506230628 39 10 4.0 17.0 0.00 1.00 0.00 84 1013.4
20260506230127 39 6 5.0 12.0 0.00 1.00 0.00 84 1013.4
20260506225627 39 13 5.0 8.0 0.00 1.00 0.00 84 1013.5
20260506225128 39 12 5.0 9.0 0.00 1.00 0.00 84 1013.4
20260506224127 40 11 7.0 12.0 0.00 1.00 0.00 84 1013.4
20260506223627 40 13 6.0 13.0 0.00 1.00 0.00 84 1013.5
20260506223127 40 12 6.0 12.0 0.00 1.00 0.00 84 1013.5
20260506222128 39 14 7.0 13.0 0.00 1.00 0.00 84 1013.4
20260506221628 39 11 8.0 12.0 0.00 1.00 0.00 84 1013.5
20260506221128 39 10 7.0 12.0 0.00 1.00 0.00 84 1013.5
20260506220627 39 17 5.0 13.0 0.00 1.00 0.00 84 1013.5
20260506220127 39 20 7.0 12.0 0.00 1.00 0.00 84 1013.4
20260506215627 39 10 7.0 13.0 0.00 1.00 1.00 84 1013.4
20260506215128 39 12 9.0 15.0 0.00 1.00 1.00 84 1013.4
20260506214627 39 11 6.0 14.0 0.00 1.00 1.00 84 1013.4
20260506214128 39 11 8.0 14.0 0.00 1.00 1.00 84 1013.4
20260506213628 39 14 8.0 13.0 0.00 1.00 1.00 84 1013.4
20260506213127 39 15 6.0 12.0 0.00 1.00 1.00 84 1013.5
20260506212128 39 13 7.0 13.0 0.00 1.00 1.00 84 1013.5
20260506211628 39 11 6.0 12.0 0.00 1.00 1.00 84 1013.5
20260506211128 39 15 6.0 10.0 0.00 1.00 1.00 84 1013.5
20260506210627 39 14 6.0 12.0 0.00 1.00 1.00 84 1013.4
20260506210127 39 17 7.0 12.0 0.00 1.00 1.00 84 1013.4
20260506205627 39 10 6.0 12.0 0.00 1.00 1.00 84 1013.5
20260506205128 40 14 5.0 9.0 0.00 1.00 1.00 84 1013.5
20260506204627 40 18 3.0 8.0 0.00 1.00 1.00 84 1013.5
20260506204128 40 12 9.0 14.0 0.00 1.00 1.00 84 1013.5
20260506203628 40 9 7.0 12.0 0.00 1.00 1.00 84 1013.4
20260506203128 40 11 7.0 10.0 0.00 1.00 1.00 84 1013.4
20260506202628 40 15 7.0 12.0 0.00 1.00 1.00 84 1013.5
20260506202127 40 14 6.0 12.0 0.00 1.00 1.00 84 1013.4
20260506201628 40 12 7.0 12.0 0.00 1.00 1.00 84 1013.5
20260506200628 40 11 9.0 12.0 0.00 1.01 1.00 84 1013.3
20260506200128 40 14 5.0 8.0 0.00 1.01 1.00 84 1013.3
20260506195628 40 12 4.0 8.0 0.00 1.02 1.00 84 1013.4
20260506195128 40 12 5.0 8.0 0.00 1.02 1.00 84 1013.3
20260506194627 40 11 7.0 13.0 0.00 1.02 1.00 84 1013.3
20260506194128 40 8 5.0 8.0 0.00 1.02 1.00 84 1013.2
20260506193628 40 11 5.0 8.0 0.00 1.02 1.00 84 1013.1
20260506192627 40 13 3.0 6.0 0.00 1.02 1.00 84 1013.0
20260506192127 40 11 3.0 5.0 0.00 1.02 1.00 84 1013.0
20260506191628 40 9 3.0 6.0 0.00 1.02 1.00 84 1012.9
20260506191127 40 10 4.0 6.0 0.00 1.02 1.00 84 1012.9
20260506190628 39 16 3.0 8.0 0.00 1.02 1.00 84 1012.8
20260506190128 40 15 6.0 12.0 0.00 1.02 1.00 84 1012.8
20260506185628 39 11 3.0 7.0 0.00 1.02 1.00 84 1012.8
20260506184628 39 14 2.0 3.0 0.00 1.03 1.00 84 1012.7
20260506182627 40 14 1.0 3.0 0.00 1.03 1.00 84 1012.6
20260506182127 40 15 2.0 5.0 0.00 1.03 1.00 84 1012.5
20260506181627 40 12 3.0 7.0 0.00 1.03 1.00 84 1012.4
20260506181127 40 9 2.0 3.0 0.00 1.03 1.00 84 1012.3
20260506180627 40 13 3.0 6.0 0.00 1.04 1.00 84 1012.4
20260506180128 40 9 3.0 5.0 0.00 1.05 1.00 84 1012.3
20260506175627 40 14 3.0 6.0 0.00 1.06 1.00 84 1012.4
20260506175128 41 9 3.0 6.0 0.00 1.06 1.00 84 1012.3
20260506174627 40 16 2.0 3.0 0.00 1.06 1.00 84 1012.3
20260506174127 40 12 2.0 7.0 0.00 1.06 1.00 84 1012.3
20260506173627 40 13 2.0 5.0 0.00 1.06 1.00 84 1012.3
20260506173127 40 11 3.0 6.0 0.00 1.06 1.00 84 1012.3
20260506172627 40 13 3.0 7.0 0.00 1.06 1.00 84 1012.1
20260506172128 40 15 2.0 7.0 0.00 1.07 1.00 84 1012.1
20260506171628 41 14 6.0 9.0 0.00 1.08 1.00 84 1012.1
20260506171128 41 10 3.0 7.0 0.00 1.09 1.00 84 1011.9
20260506170627 41 17 4.0 10.0 0.00 1.10 1.00 84 1011.9
20260506165627 41 7 2.0 9.0 0.00 1.12 1.00 84 1011.8
20260506165127 41 12 3.0 8.0 0.00 1.12 1.00 84 1011.8
20260506164627 41 14 2.0 7.0 0.01 1.13 1.00 84 1011.8
20260506164128 41 10 2.0 7.0 0.01 1.13 1.00 84 1011.8